NADEZHDA 3

导读

NADEZHDA 3(“希望三号”)卫星由独联体(CIS)于1991年3月12日08:00发射入轨,属于俄罗斯早期导航救援卫星系列,继承了苏联航天技术遗产。作为低轨道卫星,它主要用于提供全球海上遇险搜救信号转发,同时兼具基础导航定位功能,服务远洋船舶安全。冷战后独联体航天转型期,这颗卫星延续了空间基础设施服务能力,在卫星搜救领域发挥了过渡性作用,见证了后苏联时代航天发展的衔接历程。

基本信息
目录编号:
21152
目录名称:
NADEZHDA 3
国际标识:
1991-019A
轨道中心:
EARTH
卫星名称:
NADEZHDA 3
卫星全名:
--
卫星状态:
在轨 (已飞行12970 天)
发射日期:
1991-03-12 UTC
国别 :
俄罗斯(独联体) (CIS)
星等 :
--
该卫星已列入 空间交会检测服务 Space Conjunction Data Service (SCDS) ,当前飞行风险评估等级: 无高风险
轨道信息
数据来源 国际轨道数据 AOE轨道数据
星历时间 2026-09-14T12:30:01+0800
4小时前
查看轨道信息
2026-09-11T14:00:00+0800
3天前
查看轨道信息
半长轴 7361.565km 7361.565km
偏心率 0.0041377 0.0041214
轨道倾角 82.924° 82.924°
近地点辐角 187.040° 195.227°
升交点赤经 237.744° 239.923°
平近点角 184.945° 49.427°
近地点 952.968km 953.088km
远地点 1013.888km 1013.768km
周期 104.765分钟 104.765分钟
每日圈数 13.745089 13.745091
详细信息
使用方式:
暂无
2D轨道图
3D轨道图
轨道高度分析图
轨道倾角分析图
轨道综合分析图
查看轨道综合分析图
交会数据列表
事件ID 空间交会对象 最接近时刻(TCA) 交会距离 交会风险概率(CRP) 交会风险指数(CRI) 操作
CDM_260914-163101-046902-115228
2026-09-14T
16:31:44+0000
1.095 km
极远距离
1.439631E-5 中风险 0.58
CDM_260915-065602-115203-768723
2026-09-15T
06:56:59+0000
2.752 km
极远距离
7.231929E-7 极低风险 0.32
与全量物体交会距离演化趋势 订阅飞行安全评估服务
与全量物体交会风险概率演化趋势 订阅飞行安全评估服务